Location: Conflandey
(47.7287°N, 6.0456°E)
Time: 20:41:37
(UTC+00:00)

deb Chang Zheng 4 - Pass Details

Date: 24 October 2021
Orbit: 595 x 616 km, 98.6° (Epoch: 05 December)

Event Time Altitude Azimuth Distance (km) Brightness Sun altitude
Rises 17:41:36 0° 173° (S) 2,825 6.9 -12.5°
Reaches altitude 10° 17:43:46 10° 177° (S) 1,929 6.1 -12.8°
Maximum altitude 17:47:55 61° 258° (WSW) 686 4.1 -13.5°
Drops below altitude 10° 17:52:06 10° 339° (NNW) 1,956 6.4 -14.2°
Sets 17:54:19 0° 343° (NNW) 2,867 7.2 -14.6°
